"2009-11-01 00:00:00",1376926,13.95,324.4,5.457,0.733,17.43,105.1698,12.51,13.94,29.16,0,110.4,13.27,13.30,286.4
"2009-11-01 00:00:30",1376927,13.49,319.1,6.775,1.196,15.73,105.1488,12.45,13.88,29.41,0,110.4,13.27,13.25,281.1
"2009-11-01 00:01:00",1376928,11.68,313.6,5.72,1.477,13.32,105.1501,12.46,13.7,29.47,0,110.4,13.27,13.25,275.6
"2009-11-01 00:01:30",1376929,11.27,309.3,2.097,0.349,11.64,105.1541,12.47,13.56,30.03,0,110.4,13.31,13.26,271.3
"2009-11-01 00:02:00",1376930,12.51,311.4,3.565,0.911,13.75,105.1327,12.41,13.68,29.77,0,110.4,13.28,13.21,273.4
"2009-11-01 00:02:30",1376931,13.09,308.8,8.44,1.186,13.58,105.1305,12.41,13.58,29.72,0,110.4,13.28,13.20,270.8
"2009-11-01 00:03:00",1376932,14.24,316.5,6.382,1.177,16.39,105.1317,12.41,13.75,29.95,0,110.4,13.28,13.20,278.5
"2009-11-01 00:03:30",1376933,15.3,318.5,4.616,0.824,17.17,105.1272,12.4,13.78,29.54,0,110.4,13.28,13.19,280.5
"2009-11-01 00:04:00",1376934,14.52,319.2,6.908,1.389,15.83,105.1104,12.35,13.68,29.55,0,110.4,13.28,13.15,281.2
"2009-11-01 00:04:30",1376935,12.48,310,4.583,0.646,12.09,105.1068,12.35,13.39,30.56,0,110.4,13.28,13.14,272.0
"2009-11-01 00:05:00",1376936,12.29,309.2,1.002,0.159,12.2,105.1077,12.35,13.38,29.44,0,110.4,13.32,13.14,271.2
"2009-11-01 00:05:30",1376937,13.74,316.3,6.998,0.981,14.54,105.1035,12.34,13.49,29.24,0,110.4,13.29,13.13,278.3
"2009-11-01 00:06:00",1376938,14.15,318.2,7.118,1.592,15.14,105.0902,12.3,13.49,28.87,0,110.3,13.29,13.10,280.2
"2009-11-01 00:06:30",1376939,14.78,322.3,6.243,1.284,16.69,105.0758,12.27,13.57,28.97,0,110.4,13.29,13.06,284.3
"2009-11-01 00:07:00",1376940,15.22,323.8,3.392,0.761,17.33,105.0744,12.26,13.66,28.87,0,110.4,13.29,13.06,285.8
"2009-11-01 00:07:30",1376941,12.7,314.1,6.749,1.641,15.11,105.0744,12.26,13.6,28.77,0,110.3,13.29,13.06,276.1
"2009-11-01 00:08:00",1376942,12.78,310.8,4.465,0.815,13.11,105.0744,12.26,13.32,27.96,0,110.3,13.29,13.06,272.8
"2009-11-01 00:08:30",1376943,12.4,311.3,2.649,0.123,13.07,105.0744,12.26,13.34,27.67,0,110.3,13.32,13.06,273.3
"2009-11-01 00:09:00",1376944,13.45,314.9,6.474,1.375,14.4,105.0744,12.26,13.36,28.31,0,110.3,13.29,13.06,276.9
"2009-11-01 00:09:30",1376945,13.61,316.1,6.364,1.291,15.56,105.0761,12.27,13.4,27.92,0,110.3,13.29,13.06,278.1
"2009-11-01 00:10:00",1376946,14.06,316.6,6.355,1.268,16.13,105.0925,12.31,13.48,27.95,0,110.3,13.29,13.10,278.6
"2009-11-01 00:10:30",1376947,14.8,319.8,5.153,1.109,17.29,105.1043,12.34,13.57,28.18,0,110.3,13.29,13.13,281.8
"2009-11-01 00:11:00",1376948,14.61,316.5,7.165,1.345,15.72,105.108,12.35,13.56,28.04,0,110.3,13.29,13.14,278.5
"2009-11-01 00:11:30",1376949,13.99,313.8,6.744,1.247,14.6,105.1083,12.35,13.37,27.76,0,110.3,13.29,13.14,275.8
"2009-11-01 00:12:00",1376950,12.64,309.3,1.249,0.325,12.72,105.1083,12.35,13.32,27.53,0,110.3,13.33,13.14,271.3
"2009-11-01 00:12:30",1376951,13.08,314.5,7.185,1.142,14.86,105.1145,12.37,13.49,27.88,0,110.3,13.3,13.16,276.5
"2009-11-01 00:13:00",1376952,13.71,314.4,7.413,1.357,15.08,105.1283,12.4,13.55,28.28,0,110.3,13.3,13.20,276.4
"2009-11-01 00:13:30",1376953,13.05,311.8,6.887,1.323,14.1,105.1401,12.43,13.47,28.32,0,110.3,13.3,13.23,273.8
"2009-11-01 00:14:00",1376954,14.8,321.4,3.812,0.847,17.29,105.1421,12.44,13.65,28.44,0,110.3,13.29,13.23,283.4
"2009-11-01 00:14:30",1376955,14.03,315.8,5.993,1.364,15.53,105.1421,12.44,13.64,28.54,0,110.3,13.29,13.23,277.8
"2009-11-01 00:15:00",1376956,13.62,313.4,6.338,1.571,14.12,105.1424,12.44,13.54,28.37,0,110.3,13.29,13.23,275.4
"2009-11-01 00:15:30",1376957,11.9,309.3,2.551,0.809,12.36,105.1421,12.44,13.48,28.47,0,110.3,13.32,13.23,271.3
"2009-11-01 00:16:00",1376958,12.36,314.5,6.145,1.24,14.54,105.1438,12.44,13.59,28.7,0,110.3,13.29,13.24,276.5
"2009-11-01 00:16:30",1376959,13.85,319.2,6.167,1.311,16.39,105.1464,12.45,13.72,29.15,0,110.3,13.29,13.24,281.2
"2009-11-01 00:17:00",1376960,12.86,314.8,7.75,1.407,14.7,105.1494,12.45,13.62,28.78,0,110.3,13.29,13.25,276.8
"2009-11-01 00:17:30",1376961,13.64,320.6,6.253,1.299,16.02,105.1487,12.45,13.71,29.01,0,110.3,13.29,13.25,282.6
"2009-11-01 00:18:00",1376962,14.28,322.8,5.393,1.276,16.42,105.1518,12.46,13.71,28.51,0,110.3,13.29,13.26,284.8
"2009-11-01 00:18:30",1376963,12.31,315.8,7.527,1.917,13.86,105.1518,12.46,13.56,28.37,0,110.3,13.3,13.26,277.8
"2009-11-01 00:19:00",1376964,11.63,314.5,5.337,1.124,13.81,105.1536,12.47,13.52,29.17,0,110.3,13.3,13.26,276.5
"2009-11-01 00:19:30",1376965,13.91,319.5,7.265,1.485,15.48,105.1551,12.47,13.64,29.14,0,110.3,13.3,13.26,281.5
"2009-11-01 00:20:00",1376966,14.36,318.8,7.893,1.008,15.11,105.1578,12.48,13.66,28.73,0,110.3,13.3,13.27,280.8
"2009-11-01 00:20:30",1376967,13.74,310.8,0.771,0.166,12.98,105.1536,12.47,13.52,27.97,0,110.3,13.33,13.26,272.8
"2009-11-01 00:21:00",1376968,14.45,317.1,7.324,1.3,15.26,105.1596,12.48,13.67,28.04,0,110.3,13.3,13.28,279.1
"2009-11-01 00:21:30",1376969,14.68,320.2,6.877,1.348,15.97,105.1616,12.49,13.65,28.29,0,110.3,13.3,13.28,282.2
"2009-11-01 00:22:00",1376970,14.18,316.8,6.107,1.148,14.61,105.1646,12.49,13.64,28.37,0,110.3,13.3,13.29,278.8
"2009-11-01 00:22:30",1376971,13.68,316.2,6.186,1.065,14.19,105.1688,12.5,13.62,28.06,0,110.3,13.3,13.30,278.2
"2009-11-01 00:23:00",1376972,14.29,322,6.554,1.287,16.23,105.1711,12.51,13.72,28.06,0,110.3,13.3,13.31,284.0
"2009-11-01 00:23:30",1376973,13.45,318.1,6.971,1.335,14.84,105.1753,12.52,13.61,28.03,0,110.3,13.3,13.32,280.1
"2009-11-01 00:24:00",1376974,11.88,310,1.171,0.412,12.72,105.1774,12.53,13.46,27.76,0,110.3,13.34,13.32,272.0
"2009-11-01 00:24:30",1376975,12.17,311.8,5.027,1.014,13.84,105.1771,12.53,13.56,27.89,0,110.3,13.3,13.32,273.8
"2009-11-01 00:25:00",1376976,14.2,320.4,5.808,1.187,17.03,105.1774,12.53,13.73,27.79,0,110.3,13.3,13.32,282.4
"2009-11-01 00:25:30",1376977,13.17,315.4,6.797,1.24,15.6,105.1774,12.53,13.71,27.41,0,110.3,13.31,13.32,277.4
"2009-11-01 00:26:00",1376978,12.87,317.3,7.181,1.295,15.16,105.1777,12.53,13.56,27.11,0,110.3,13.31,13.32,279.3
"2009-11-01 00:26:30",1376979,13.45,321.5,5.895,1.18,16.38,105.1777,12.53,13.74,27.58,0,110.3,13.31,13.32,283.5
"2009-11-01 00:27:00",1376980,12.39,316,6.498,1.354,14.81,105.1777,12.53,13.67,27.55,0,110.3,13.31,13.32,278.0
"2009-11-01 00:27:30",1376981,11.2,310.3,0.87,0.135,12.52,105.1777,12.53,13.48,27.51,0,110.3,13.34,13.32,272.3
"2009-11-01 00:28:00",1376982,11.07,308.6,3.72,0.811,12.9,105.1779,12.53,13.5,27.44,0,110.3,13.31,13.32,270.6
"2009-11-01 00:28:30",1376983,11.61,311.9,7.164,1.35,14.98,105.1785,12.53,13.72,28.04,0,110.3,13.31,13.33,273.9
"2009-11-01 00:29:00",1376984,11.55,313.5,7.82,1.194,15.71,105.1785,12.53,13.73,28.6,0,110.3,13.31,13.33,275.5
"2009-11-01 00:29:30",1376985,11.54,310.9,6.964,1.322,16.51,105.1825,12.54,13.76,28.05,0,110.3,13.31,13.34,272.9
"2009-11-01 00:30:00",1376986,11.32,313.5,6.14,1.166,16.3,105.1867,12.55,13.77,27.77,0,110.3,13.3,13.35,275.5
"2009-11-01 00:30:30",1376987,9.77,304.8,1.976,0.443,12.75,105.1915,12.56,13.63,27.38,0,110.3,13.31,13.36,266.8
"2009-11-01 00:31:00",1376988,9.79,302.7,1.614,0.17,12.56,105.2016,12.59,13.54,26.81,0,110.3,13.34,13.38,264.7
"2009-11-01 00:31:30",1376989,9.41,300.2,0.941,0.193,12.58,105.2087,12.61,13.55,27.08,0,110.3,13.34,13.40,262.2
"2009-11-01 00:32:00",1376990,9.31,300.3,3.884,0.841,13.2,105.2107,12.61,13.55,27.17,0,110.3,13.3,13.41,262.3
"2009-11-01 00:32:30",1376991,10.19,301.7,6.435,1.548,15.7,105.2115,12.61,13.78,27.34,0,110.3,13.3,13.41,263.7
"2009-11-01 00:33:00",1376992,11.04,307.1,8.63,1.351,16.94,105.2115,12.61,13.81,26.84,0,110.3,13.31,13.41,269.1
"2009-11-01 00:33:30",1376993,10.64,305,7.036,1.605,15.88,105.2115,12.61,13.76,26.76,0,110.3,13.3,13.41,267.0
"2009-11-01 00:34:00",1376994,9.73,305.7,6.337,1.309,16.33,105.2115,12.61,13.84,26.93,0,110.3,13.3,13.41,267.7
"2009-11-01 00:34:30",1376995,9,302.1,4.126,1.331,13.69,105.2143,12.62,13.64,26.7,0,110.3,13.3,13.42,264.1
"2009-11-01 00:35:00",1376996,8.4,298.3,2.051,0.368,12.36,105.2211,12.64,13.6,26.72,0,110.3,13.34,13.43,260.3
"2009-11-01 00:35:30",1376997,9.03,299.6,3.162,0.347,12.7,105.2363,12.68,13.61,26.6,0,110.3,13.35,13.47,261.6
"2009-11-01 00:36:00",1376998,8.38,301.2,3.682,0.293,13.06,105.2453,12.7,13.63,26.59,0,110.3,13.35,13.50,263.2
"2009-11-01 00:36:30",1376999,8.59,303.5,6.396,0.964,14.46,105.2453,12.7,13.79,26.69,0,110.3,13.31,13.50,265.5
"2009-11-01 00:37:00",1377000,9.34,306.7,5.292,1.316,17.07,105.2453,12.7,13.91,26.76,0,110.3,13.31,13.50,268.7
"2009-11-01 00:37:30",1377001,9.04,301.7,7.356,1.285,15.77,105.2467,12.7,13.92,26.8,0,110.3,13.31,13.50,263.7
"2009-11-01 00:38:00",1377002,9.87,304.4,6.357,1.29,16.68,105.2623,12.74,13.96,26.85,0,110.3,13.31,13.54,266.4
"2009-11-01 00:38:30",1377003,9.88,306.3,7.664,1.373,15.18,105.273,12.77,13.86,26.63,0,110.3,13.31,13.57,268.3
"2009-11-01 00:39:00",1377004,7.898,297.9,2.247,0.195,12.33,105.2789,12.79,13.7,26.5,0,110.3,13.35,13.58,259.9
"2009-11-01 00:39:30",1377005,8,299.2,5.061,0.408,12.48,105.2792,12.79,13.73,26.53,0,110.3,13.35,13.58,261.2
"2009-11-01 00:40:00",1377006,7.51,299.3,3.088,0.27,12.79,105.2795,12.79,13.74,26.53,0,110.3,13.35,13.58,261.3
"2009-11-01 00:40:30",1377007,7.654,297.7,1.442,0.167,13.25,105.2792,12.79,13.75,26.45,0,110.3,13.35,13.58,259.7
"2009-11-01 00:41:00",1377008,8.95,304.5,7.731,1.334,15.83,105.2798,12.79,13.94,26.57,0,110.3,13.32,13.59,266.5
"2009-11-01 00:41:30",1377009,9.95,310.8,5.958,1.269,17.12,105.2792,12.79,14.04,26.61,0,110.3,13.32,13.58,272.8
"2009-11-01 00:42:00",1377010,9.71,310.5,7.981,1.173,16.39,105.2816,12.79,13.85,26.28,0,110.3,13.32,13.59,272.5
"2009-11-01 00:42:30",1377011,9.45,310.4,6.472,1.384,16.3,105.2846,12.8,14.03,26.44,0,110.3,13.32,13.60,272.4
"2009-11-01 00:43:00",1377012,9.1,308.3,5.46,1.377,14.13,105.2928,12.82,13.9,26.17,0,110.3,13.32,13.62,270.3
"2009-11-01 00:43:30",1377013,7.906,307,1.413,0.299,12.41,105.3055,12.85,13.82,26.07,0,110.3,13.35,13.65,269.0
"2009-11-01 00:44:00",1377014,7.825,300,2.061,0.228,12.66,105.313,12.87,13.82,26.13,0,110.3,13.35,13.67,262.0
"2009-11-01 00:44:30",1377015,7.831,303.5,1.985,0.333,12.97,105.3187,12.89,13.82,26.14,0,110.3,13.36,13.69,265.5
"2009-11-01 00:45:00",1377016,7.033,300.2,1.974,0.188,13.35,105.3199,12.89,13.84,26.22,0,110.3,13.36,13.69,262.2
"2009-11-01 00:45:30",1377017,8.92,310.8,7.668,1.425,16.56,105.3207,12.89,14.07,26.36,0,110.3,13.33,13.69,272.8
"2009-11-01 00:46:00",1377018,8.79,311.3,7.026,1.379,16.61,105.3213,12.89,14.1,26.28,0,110.3,13.33,13.69,273.3
"2009-11-01 00:46:30",1377019,8.54,305.1,6.16,1.256,15.54,105.3222,12.9,14.1,26.31,0,110.3,13.32,13.69,267.1
"2009-11-01 00:47:00",1377020,9.31,310.4,6.677,1.212,15.94,105.3252,12.9,14.09,26.25,0,110.3,13.32,13.70,272.4
"2009-11-01 00:47:30",1377021,7.87,304.7,4.82,0.927,13.47,105.324,12.9,13.95,26.09,0,110.3,13.32,13.70,266.7
"2009-11-01 00:48:00",1377022,7.145,298.3,4.009,0.352,12.28,105.3252,12.9,13.88,26.11,0,110.3,13.35,13.70,260.3
"2009-11-01 00:48:30",1377023,7.426,299.6,2.173,0.256,12.58,105.3288,12.91,13.89,26.12,0,110.3,13.35,13.71,261.6
"2009-11-01 00:49:00",1377024,7.665,300.4,1.28,0.2,13.06,105.3308,12.92,13.89,26.01,0,110.3,13.35,13.72,262.4
"2009-11-01 00:49:30",1377025,7.753,302.2,1.149,0.188,13.44,105.3314,12.92,13.91,25.95,0,110.3,13.35,13.72,264.2
"2009-11-01 00:50:00",1377026,8.98,307.9,7.45,1.349,15.54,105.3329,12.92,14.05,26.08,0,110.3,13.32,13.72,269.9
"2009-11-01 00:50:30",1377027,9.32,310.3,5.676,1.261,17.53,105.3374,12.94,14.14,26.19,0,110.3,13.32,13.73,272.3
"2009-11-01 00:51:00",1377028,8.95,309,8.08,1.3,16.95,105.3365,12.93,14.11,26.24,0,110.3,13.32,13.73,271.0
"2009-11-01 00:51:30",1377029,9.26,308.9,6.44,1.302,15.71,105.3398,12.94,14.14,26.26,0,110.3,13.32,13.74,270.9
"2009-11-01 00:52:00",1377030,8.55,307.3,6.501,1.299,14.22,105.3401,12.94,13.94,26.03,0,110.3,13.32,13.74,269.3
"2009-11-01 00:52:30",1377031,7.752,303.9,2.596,0.164,12.36,105.3427,12.95,13.9,25.96,0,110.3,13.36,13.75,265.9
"2009-11-01 00:53:00",1377032,7.728,300.4,1.453,0.345,12.65,105.3415,12.95,13.92,25.95,0,110.3,13.36,13.74,262.4
"2009-11-01 00:53:30",1377033,7.542,300.7,1.482,0.224,13.02,105.3433,12.95,13.92,25.97,0,110.3,13.36,13.75,262.7
"2009-11-01 00:54:00",1377034,7.689,298.6,1.618,0.183,13.44,105.3424,12.95,13.92,25.97,0,110.3,13.36,13.75,260.6
"2009-11-01 00:54:30",1377035,8.46,303.7,5.619,1.19,15.62,105.3463,12.96,14.08,26.2,0,110.3,13.33,13.76,265.7
"2009-11-01 00:55:00",1377036,8.9,306.9,5.714,1.358,17.5,105.3478,12.96,14.25,26.42,0,110.3,13.33,13.76,268.9
"2009-11-01 00:55:30",1377037,9.67,309.4,5.999,1.206,16.78,105.3475,12.96,14.19,26.37,0,110.3,13.33,13.76,271.4
"2009-11-01 00:56:00",1377038,10.16,310.9,5.988,0.949,16.79,105.3484,12.96,14.17,26.32,0,110.3,13.33,13.76,272.9
"2009-11-01 00:56:30",1377039,7.99,303.7,4.754,1.012,13.16,105.3475,12.96,13.92,26.13,0,110.3,13.33,13.76,265.7
"2009-11-01 00:57:00",1377040,7.081,300.6,2.268,0.273,12.13,105.3475,12.96,13.92,26.21,0,110.3,13.36,13.76,262.6
"2009-11-01 00:57:30",1377041,7.916,302.2,1.817,0.389,12.48,105.3481,12.96,13.93,26.32,0,110.3,13.36,13.76,264.2
"2009-11-01 00:58:00",1377042,7.788,303.1,1.098,0.184,12.89,105.3487,12.96,13.93,26.36,0,110.3,13.36,13.76,265.1
"2009-11-01 00:58:30",1377043,7.954,303.4,3.189,0.792,13.39,105.3481,12.96,13.93,26.37,0,110.3,13.33,13.76,265.4
"2009-11-01 00:59:00",1377044,9.59,310,6.942,1.554,15.34,105.3484,12.96,14.17,26.55,0,110.3,13.33,13.76,272.0
"2009-11-01 00:59:30",1377045,10.2,316.8,7.413,1.354,16.89,105.3487,12.96,14.21,26.56,0,110.3,13.33,13.76,278.8
"2009-11-01 01:00:00",1377046,10.42,315.1,5.039,0.894,16.96,105.3487,12.96,14.18,26.65,0,110.3,13.33,13.76,277.1
"2009-11-01 01:00:30",1377047,9.41,309.6,5.917,1.309,15.25,105.3487,12.96,14.05,26.45,0,110.3,13.33,13.76,271.6
"2009-11-01 01:01:00",1377048,7.742,303.3,1.183,0.206,12.21,105.3487,12.96,13.92,26.36,0,110.3,13.36,13.76,265.3
"2009-11-01 01:01:30",1377049,7.503,303.1,1.915,0.224,12.26,105.3481,12.96,13.91,26.45,0,110.3,13.36,13.76,265.1
"2009-11-01 01:02:00",1377050,8.04,302.3,1.211,0.143,12.74,105.3444,12.95,13.91,26.44,0,110.3,13.36,13.75,264.3
"2009-11-01 01:02:30",1377051,7.873,300.4,1.358,0.245,13.13,105.3388,12.94,13.91,26.38,0,110.3,13.36,13.74,262.4
"2009-11-01 01:03:00",1377052,9.14,306.7,6.578,1.402,15.96,105.3315,12.92,14.08,26.53,0,110.3,13.33,13.72,268.7
"2009-11-01 01:03:30",1377053,9.18,307,7.638,1.32,15.54,105.3202,12.89,14.12,26.56,0,110.3,13.33,13.69,269.0
"2009-11-01 01:04:00",1377054,9.71,312.2,6.212,1.113,17.11,105.3148,12.88,14.1,26.6,0,110.3,13.33,13.68,274.2
"2009-11-01 01:04:30",1377055,9.27,308.7,7.439,1.258,15.59,105.3148,12.88,14.15,26.58,0,110.3,13.33,13.68,270.7
"2009-11-01 01:05:00",1377056,9.06,304.5,6.633,1.249,14.38,105.3148,12.88,13.95,26.33,0,110.3,13.32,13.68,266.5
"2009-11-01 01:05:30",1377057,7.989,298.9,1.136,0.186,12.33,105.3148,12.88,13.88,26.23,0,110.3,13.36,13.68,260.9
"2009-11-01 01:06:00",1377058,7.808,299.2,1.309,0.226,12.58,105.3148,12.88,13.88,26.27,0,110.3,13.36,13.68,261.2
"2009-11-01 01:06:30",1377059,7.986,301.1,1.356,0.173,13.06,105.3148,12.88,13.88,26.26,0,110.3,13.36,13.68,263.1
"2009-11-01 01:07:00",1377060,8.69,304.9,6.299,1.27,14.42,105.3148,12.88,13.87,26.19,0,110.3,13.33,13.68,266.9
"2009-11-01 01:07:30",1377061,8.79,305.7,6.532,1.252,15.37,105.3148,12.88,14.07,26.47,0,110.3,13.33,13.68,267.7
"2009-11-01 01:08:00",1377062,10.31,309.8,6.662,1.163,17.11,105.3148,12.88,14.17,26.59,0,110.3,13.33,13.68,271.8
"2009-11-01 01:08:30",1377063,10.11,310.3,6.082,1.365,16.76,105.3148,12.88,14.1,26.58,0,110.3,13.33,13.68,272.3
"2009-11-01 01:09:00",1377064,8.86,302.3,6.25,1.029,13.97,105.3148,12.88,14.06,26.55,0,110.3,13.33,13.68,264.3
"2009-11-01 01:09:30",1377065,9.34,305,6.585,1.209,13.96,105.3148,12.88,13.89,26.38,0,110.3,13.33,13.68,267.0
"2009-11-01 01:10:00",1377066,8.18,302.1,0.568,0.114,12.5,105.3148,12.88,13.87,26.27,0,110.3,13.36,13.68,264.1
"2009-11-01 01:10:30",1377067,7.845,304.4,0.91,0.149,12.86,105.3148,12.88,13.87,26.17,0,110.3,13.36,13.68,266.4
"2009-11-01 01:11:00",1377068,8.02,305,1.174,0.188,13.21,105.3148,12.88,13.86,26.09,0,110.3,13.37,13.68,267.0
"2009-11-01 01:11:30",1377069,8.02,304.7,1.074,0.207,13.61,105.3148,12.88,13.92,26.3,0,110.3,13.37,13.68,266.7
"2009-11-01 01:12:00",1377070,9.86,314.5,7.021,1.328,17.4,105.3148,12.88,14.08,26.35,0,110.3,13.34,13.68,276.5
"2009-11-01 01:12:30",1377071,10.48,315.6,6.058,1.129,17.32,105.3148,12.88,14.1,26.34,0,110.3,13.34,13.68,277.6
"2009-11-01 01:13:00",1377072,9.31,310.7,7.348,1.257,15.44,105.3148,12.88,14.09,26.35,0,110.3,13.34,13.68,272.7
"2009-11-01 01:13:30",1377073,9.04,311,6.161,1.364,14.66,105.3148,12.88,14.06,26.29,0,110.3,13.34,13.68,273.0
"2009-11-01 01:14:00",1377074,8.9,311.4,6.296,1.523,14.59,105.3148,12.88,13.92,25.9,0,110.3,13.33,13.68,273.4
"2009-11-01 01:14:30",1377075,7.687,307,1.45,0.216,12.73,105.3148,12.88,13.86,25.82,0,110.3,13.37,13.68,269.0
"2009-11-01 01:15:00",1377076,7.943,306,0.927,0.176,13.04,105.3148,12.88,13.85,25.91,0,110.3,13.37,13.68,268.0
"2009-11-01 01:15:30",1377077,7.853,306.6,1.554,0.154,13.42,105.3148,12.88,13.87,25.93,0,110.3,13.37,13.68,268.6
"2009-11-01 01:16:00",1377078,7.895,306,2.035,0.255,13.73,105.3148,12.88,13.87,25.95,0,110.2,13.38,13.68,268.0
"2009-11-01 01:16:30",1377079,9.46,311.1,6.554,1.482,16.55,105.3148,12.88,14.13,26.21,0,110.3,13.34,13.68,273.1
"2009-11-01 01:17:00",1377080,9.74,312,7.388,1.336,16.7,105.3148,12.88,14.14,26.18,0,110.3,13.34,13.68,274.0
"2009-11-01 01:17:30",1377081,9.7,310.7,7.784,1.155,16.01,105.3179,12.89,14.08,26.15,0,110.3,13.34,13.68,272.7
"2009-11-01 01:18:00",1377082,9.83,311.1,6.521,1.188,15.74,105.3309,12.92,14.03,26.19,0,110.2,13.34,13.72,273.1
"2009-11-01 01:18:30",1377083,7.698,303.2,1.135,0.175,12.42,105.3371,12.94,13.88,26.03,0,110.3,13.37,13.73,265.2
"2009-11-01 01:19:00",1377084,7.627,299.7,1.867,0.156,12.53,105.3425,12.95,13.89,25.99,0,110.3,13.37,13.75,261.7
"2009-11-01 01:19:30",1377085,7.612,300.1,1.693,0.161,12.92,105.3487,12.96,13.9,25.98,0,110.2,13.37,13.76,262.1
"2009-11-01 01:20:00",1377086,7.77,303,1.136,0.31,13.4,105.3484,12.96,13.91,25.94,0,110.3,13.37,13.76,265.0
"2009-11-01 01:20:30",1377087,8.82,304.5,5.558,1.249,14.82,105.3487,12.96,13.91,25.87,0,110.2,13.33,13.76,266.5
"2009-11-01 01:21:00",1377088,10.1,313.9,7.545,1.299,16.86,105.3487,12.96,14.12,26.02,0,110.3,13.33,13.76,275.9
"2009-11-01 01:21:30",1377089,9.55,310.6,6.894,1.354,16.5,105.3487,12.96,14.13,26.03,0,110.3,13.33,13.76,272.6
"2009-11-01 01:22:00",1377090,9.14,309.5,6.704,1.37,15.38,105.3487,12.96,14.15,26.02,0,110.3,13.33,13.76,271.5
"2009-11-01 01:22:30",1377091,9.71,309.3,6.634,1.244,15.58,105.3487,12.96,14.11,26.03,0,110.3,13.33,13.76,271.3
"2009-11-01 01:23:00",1377092,8.47,301.7,1.039,0.217,12.63,105.3487,12.96,14,25.9,0,110.3,13.36,13.76,263.7
"2009-11-01 01:23:30",1377093,8.24,301.6,1.234,0.319,12.6,105.3487,12.96,13.95,25.8,0,110.3,13.36,13.76,263.6
"2009-11-01 01:24:00",1377094,8.14,298.9,1.793,0.349,12.94,105.3487,12.96,13.95,25.8,0,110.2,13.36,13.76,260.9
"2009-11-01 01:24:30",1377095,8.34,297.9,1.521,0.176,13.35,105.3487,12.96,13.96,25.85,0,110.2,13.37,13.76,259.9
"2009-11-01 01:25:00",1377096,9.1,302.8,7.431,1.295,15.28,105.3523,12.97,14.1,26.05,0,110.2,13.34,13.77,264.8
"2009-11-01 01:25:30",1377097,10.17,309.1,6.45,1.207,17.21,105.356,12.98,14.24,26.12,0,110.3,13.34,13.78,271.1
"2009-11-01 01:26:00",1377098,8.87,301.7,5.282,1.014,15.13,105.3662,13.01,14.09,26.08,0,110.3,13.34,13.81,263.7
"2009-11-01 01:26:30",1377099,9.42,305.8,6.178,1.409,15.36,105.3741,13.03,14.24,26.1,0,110.2,13.34,13.83,267.8
"2009-11-01 01:27:00",1377100,10.37,309.8,6.699,1.184,16.06,105.38,13.05,14.2,26.04,0,110.2,13.34,13.84,271.8
"2009-11-01 01:27:30",1377101,9.08,300.4,3.179,0.161,12.6,105.3805,13.05,13.99,25.85,0,110.2,13.38,13.84,262.4
"2009-11-01 01:28:00",1377102,8.06,293.7,1.956,0.395,12.64,105.382,13.05,14,25.9,0,110.2,13.38,13.85,255.7
"2009-11-01 01:28:30",1377103,7.636,296.3,2.244,0.199,12.95,105.3825,13.05,14.01,25.94,0,110.3,13.38,13.85,258.3
"2009-11-01 01:29:00",1377104,7.99,296.9,3.697,0.158,13.28,105.3825,13.05,14.01,26,0,110.2,13.38,13.85,258.9
"2009-11-01 01:29:30",1377105,9.25,302.5,7.35,1.447,16.12,105.3825,13.05,14.25,26.29,0,110.3,13.34,13.85,264.5
"2009-11-01 01:30:00",1377106,8.92,299.2,5.56,1.358,15.98,105.3825,13.05,14.21,26.41,0,110.2,13.34,13.85,261.2
"2009-11-01 01:30:30",1377107,7.632,295.7,3.497,0.144,13.24,105.3825,13.05,14.14,26.16,0,110.3,13.38,13.85,257.7
"2009-11-01 01:31:00",1377108,9.84,305.8,5.047,1.124,16.28,105.3825,13.05,14.3,26.26,0,110.3,13.34,13.85,267.8
"2009-11-01 01:31:30",1377109,9.41,305.9,5.485,1.376,15.55,105.3811,13.05,14.15,26.12,0,110.3,13.34,13.85,267.9
"2009-11-01 01:32:00",1377110,7.823,298.1,1.745,0.278,12.49,105.3774,13.04,14,25.94,0,110.2,13.38,13.84,260.1
"2009-11-01 01:32:30",1377111,8.01,297.3,2.045,0.301,12.66,105.3724,13.03,14,25.9,0,110.2,13.38,13.82,259.3
"2009-11-01 01:33:00",1377112,8.29,297.9,2.784,0.317,13.03,105.3679,13.01,14,25.92,0,110.2,13.38,13.81,259.9
"2009-11-01 01:33:30",1377113,9.73,305.8,6.332,1.262,15.62,105.3591,12.99,14.09,26.06,0,110.3,13.34,13.79,267.8
"2009-11-01 01:34:00",1377114,9.76,305.7,6.625,1.44,17.06,105.3535,12.98,14.27,26.17,0,110.2,13.34,13.77,267.7
"2009-11-01 01:34:30",1377115,9.07,303,6.037,1.351,14.69,105.3509,12.97,14.16,26.02,0,110.2,13.34,13.77,265.0
"2009-11-01 01:35:00",1377116,8.93,305.8,6.921,1.312,14.18,105.349,12.97,14.03,25.91,0,110.2,13.34,13.76,267.8
"2009-11-01 01:35:30",1377117,10.17,312.9,5.32,1.296,16.52,105.3487,12.96,14.21,26.1,0,110.3,13.34,13.76,274.9
"2009-11-01 01:36:00",1377118,9.05,305.1,6.805,1.268,14.92,105.3487,12.96,14.17,26.13,0,110.2,13.34,13.76,267.1
"2009-11-01 01:36:30",1377119,8.07,297,1.271,0.46,12.52,105.3487,12.96,13.99,26.01,0,110.2,13.37,13.76,259.0
"2009-11-01 01:37:00",1377120,8.25,298.1,1.118,0.18,12.66,105.3487,12.96,14,26.18,0,110.2,13.37,13.76,260.1
"2009-11-01 01:37:30",1377121,7.968,301.3,2.51,0.518,13.15,105.3487,12.96,14.03,26.27,0,110.2,13.37,13.76,263.3
"2009-11-01 01:38:00",1377122,9.14,311.1,7.236,1.134,16.35,105.3487,12.96,14.27,26.29,0,110.2,13.34,13.76,273.1
"2009-11-01 01:38:30",1377123,9.17,312.2,6.005,1.247,16.18,105.3487,12.96,14.1,26.19,0,110.2,13.34,13.76,274.2
"2009-11-01 01:39:00",1377124,7.674,306.7,5.399,0.624,13.05,105.3487,12.96,13.99,25.98,0,110.2,13.37,13.76,268.7
"2009-11-01 01:39:30",1377125,8.84,303.4,8.29,1.76,14.37,105.3487,12.96,14.1,26.14,0,110.2,13.34,13.76,265.4
"2009-11-01 01:40:00",1377126,10,315,7.072,1.217,16.07,105.3487,12.96,14.21,26.22,0,110.2,13.34,13.76,277.0
"2009-11-01 01:40:30",1377127,9.09,305,6.613,0.688,14.47,105.3487,12.96,14.13,26.13,0,110.2,13.34,13.76,267.0
"2009-11-01 01:41:00",1377128,7.77,308.1,3.265,0.293,12.74,105.349,12.97,13.97,26.04,0,110.2,13.37,13.76,270.1
"2009-11-01 01:41:30",1377129,8.03,301.9,3.426,0.605,13,105.3487,12.96,13.96,26.13,0,110.2,13.34,13.76,263.9
"2009-11-01 01:42:00",1377130,8.74,310.2,7.147,1.297,15.57,105.3487,12.96,14.13,26.2,0,110.2,13.34,13.76,272.2
"2009-11-01 01:42:30",1377131,9.1,318.6,7.402,1.17,15.64,105.3493,12.97,14.14,26.1,0,110.2,13.34,13.76,280.6
"2009-11-01 01:43:00",1377132,8.78,319,7.735,1.41,15.54,105.349,12.97,14.09,25.9,0,110.2,13.34,13.76,281.0
"2009-11-01 01:43:30",1377133,7.558,307.8,4.177,0.346,13.08,105.349,12.97,13.95,25.68,0,110.2,13.38,13.76,269.8
"2009-11-01 01:44:00",1377134,7.559,305,7.597,1.002,13.49,105.349,12.97,14.07,25.86,0,110.2,13.34,13.76,267.0
"2009-11-01 01:44:30",1377135,10.81,323.4,6.931,1.24,16.84,105.3496,12.97,14.22,25.95,0,110.2,13.35,13.76,285.4
"2009-11-01 01:45:00",1377136,9.55,313.9,6.844,1.261,14.56,105.3496,12.97,14.13,25.84,0,110.2,13.35,13.76,275.9
"2009-11-01 01:45:30",1377137,8.4,310.9,2.311,0.465,13.15,105.349,12.97,13.95,25.72,0,110.2,13.38,13.76,272.9
"2009-11-01 01:46:00",1377138,9.84,316.9,5.096,1.379,14.63,105.3516,12.97,13.95,25.72,0,110.2,13.35,13.77,278.9
"2009-11-01 01:46:30",1377139,9.98,325.4,7.606,1.452,15.95,105.3493,12.97,14.09,25.63,0,110.2,13.35,13.76,287.4
"2009-11-01 01:47:00",1377140,9.72,323.8,6.94,1.489,15.39,105.3496,12.97,14.15,25.63,0,110.2,13.35,13.76,285.8